Location: Turtle Rock Observatory
(36.6913°N, 81.9708°W)
Time: 04:09:42
(UTC-05:00)

Lacrosse 5 rocket - Visible Passes

Search period start: 16 December 2017 00:00
Search period end: 26 December 2017 00:00
Orbit: 466 x 635 km, 57.0° (Epoch: 08 December)

Date Brightness Start Highest point End Pass type
(mag) Time Alt. Az. Time Alt. Az. Time Alt. Az.
16 Dec 3.5 05:44:51 16° SSW 05:44:51 16° SSW 05:46:24 10° SSW visible
16 Dec 3.6 19:32:23 10° SSW 19:33:23 16° S 19:33:23 16° S visible
17 Dec 2.8 19:27:11 10° SSW 19:29:25 30° SSW 19:29:25 30° SSW visible
18 Dec 1.9 19:22:07 10° SW 19:25:21 54° SSW 19:25:21 54° SSW visible
19 Dec 3.5 17:41:35 10° SE 17:42:45 11° ESE 17:43:56 10° E visible
19 Dec 1.5 19:17:10 10° SW 19:21:13 73° WNW 19:21:13 73° WNW visible
20 Dec 1.9 19:12:19 10° WSW 19:16:23 52° NW 19:17:01 48° NNW visible
21 Dec 2.5 19:07:35 10° WSW 19:11:30 39° NW 19:12:43 31° N visible
22 Dec 2.9 19:02:57 10° WSW 19:06:38 29° NW 19:08:21 22° N visible
23 Dec 3.3 18:58:25 10° W 19:01:49 23° NW 19:03:54 17° N visible
24 Dec 3.6 18:54:01 10° W 18:57:01 19° NNW 18:59:23 13° N visible
25 Dec 3.8 18:49:46 10° WNW 18:52:14 15° NNW 18:54:48 10° N visible
